{"data":{"norad_id":55989,"intl_designator":"2023-042D","name":"STARLINK-5947","alt_names":[],"object_type":"PAYLOAD","status":"ACTIVE","operator":null,"country":"US","launch_date":"2023-03-24","launch_site_code":"AFETR","launch_vehicle":null,"mission":null,"orbit_class":"UNKNOWN","rcs_meters":null,"size_class":null,"mass_kg":null,"dimensions":null,"purposes":["comms"],"wikipedia_slug":null,"has_3d_model":false,"image_url":null,"decayed_at":null,"tle_current":{"epoch":"2026-05-24T22:54:05.736384Z","epoch_age_seconds":76106,"freshness":"FRESH","line1":"1 55989U 23042D   26144.95423306  .00000121  00000+0  13922-4 0  9990","line2":"2 55989  43.0041 348.8684 0001400 278.4209  81.6484 15.27586591174538","mean_motion":15.27586591,"eccentricity":0.00014,"inclination_deg":43.0041,"raan_deg":348.8684,"arg_perigee_deg":278.4209,"mean_anomaly_deg":81.6484,"bstar":1.3922e-5,"rev_number":17453,"period_min":94.266341985716,"perigee_km":482.06879699507,"apogee_km":483.98992357595,"semimajor_km":6861.1663602855,"source":"CELESTRAK","updated_at":"2026-05-25T13:38:17.922237Z"}}}